Location: Alladorf
(49.9620°N, 11.3790°E)
Time: 19:52:37
(UTC+00:00)

Cosmos 1500 Rocket - Pass Details

Date: 29 November 2020
Orbit: 603 x 631 km, 82.5° (Epoch: 25 January)

Event Time Altitude Azimuth Distance (km) Brightness Sun altitude
Rises 04:30:53 0° 176° (S) 2,844 7.1 -21.4°
Reaches altitude 10° 04:33:07 10° 171° (S) 1,947 6.3 -21.0°
Maximum altitude 04:37:18 54° 95° (E) 742 4.3 -20.4°
Drops below altitude 10° 04:41:33 10° 18° (NNE) 1,972 6.2 -19.7°
Sets 04:43:49 0° 14° (NNE) 2,884 7.0 -19.3°
